Weather History for Medford, WI

Change the Weather History Date:

Tuesday, October 30, 2012

  Actual Average Record
Temperature  
Mean Temperature 36 °F -  
Max Temperature 42 °F 49 °F 75 °F (1950)
Min Temperature 30 °F 30 °F 11 °F (1988)
Degree Days  
Heating Degree Days 29    
Moisture  
Dew Point 25 °F    
Average Humidity 68    
Maximum Humidity 93    
Minimum Humidity 39    
Precipitation  
Precipitation 0.00 in - - ()
Sea Level Pressure  
Sea Level Pressure 30.05 in    
Wind  
Wind Speed - (North)    
Max Wind Speed -    
Max Gust Speed -    
Visibility 10 miles    
Events      
Averages and records for this station are not official NWS values.
T = Trace of Precipitation, MM = Missing Value Source: NWS Daily Summary

Daily Weather History Graph

Daily Weather History Graph

Search for Another Location

Airport:

Trip Planner

Search our weather history database for the weather conditions in past years. The results will help you decide how hot, cold, wet, or windy it might be!

Date:

Astronomy

Oct. 30, 2012 Rise Set
Actual Time 7:37 AM CDT 5:51 PM CDT
Civil Twilight 7:07 AM CDT 6:21 PM CDT
Nautical Twilight 6:32 AM CDT 6:56 PM CDT
Astronomical Twilight 5:58 AM CDT 7:30 PM CDT
Moon 6:16 PM CDT 8:28 AM CDT
Length of Visible Light 11h 14m
Length of Day
10h 13m
Full, 99% of the Moon is Illuminated
Oct 30
Full
Nov 6
Last Quarter
Nov 13
New
Nov 20
First Quarter
Nov 28
Full

Hourly Weather History & Observations

Time (CDT) Temp. Dew Point Humidity Pressure Visibility Wind Dir Wind Speed Gust Speed Precip Events Conditions
12:15 AM 33.8 °F 24.8 °F 70% 30.21 in 10.0 mi North - - N/A   Clear
12:35 AM 33.8 °F 24.8 °F 70% 30.20 in 10.0 mi North - - N/A   Clear
12:55 AM 33.8 °F 24.8 °F 70% 30.20 in 10.0 mi North - - N/A   Clear
1:15 AM 33.8 °F 24.8 °F 70% 30.20 in 10.0 mi North - - N/A   Clear
1:35 AM 32.0 °F 24.8 °F 75% 30.19 in 10.0 mi North - - N/A   Clear
1:55 AM 32.0 °F 26.6 °F 80% 30.19 in 10.0 mi North - - N/A   Clear
2:35 AM 32.0 °F 26.6 °F 80% 30.18 in 10.0 mi North - - N/A   Clear
2:55 AM 33.8 °F 26.6 °F 75% 30.17 in 10.0 mi North - - N/A   Clear
3:15 AM 33.8 °F 28.4 °F 81% 30.16 in 10.0 mi North - - N/A   Clear
3:55 AM 33.8 °F 28.4 °F 81% 30.15 in 10.0 mi North - - N/A   Clear
4:15 AM 33.8 °F 28.4 °F 81% 30.15 in 10.0 mi North - - N/A   Clear
4:35 AM 33.8 °F 28.4 °F 81% 30.15 in 10.0 mi North - - N/A   Clear
4:55 AM 33.8 °F 28.4 °F 81% 30.14 in 10.0 mi North - - N/A   Clear
5:15 AM 33.8 °F 28.4 °F 81% 30.14 in 10.0 mi North - - N/A   Clear
5:35 AM 32.0 °F 28.4 °F 87% 30.14 in 10.0 mi North - - N/A   Clear
5:55 AM 30.2 °F 28.4 °F 93% 30.14 in 10.0 mi North - - N/A   Clear
6:15 AM 30.2 °F 28.4 °F 93% 30.13 in 10.0 mi North - - N/A   Clear
6:35 AM 30.2 °F 28.4 °F 93% 30.12 in 10.0 mi North - - N/A   Clear
7:15 AM 30.2 °F 28.4 °F 93% 30.11 in 10.0 mi North - - N/A   Clear
7:35 AM 30.2 °F 28.4 °F 93% 30.10 in 10.0 mi North - - N/A   Clear
7:55 AM 30.2 °F 28.4 °F 93% 30.10 in 10.0 mi North - - N/A   Clear
8:35 AM 30.2 °F 28.4 °F 93% 30.09 in 10.0 mi North - - N/A   Clear
8:55 AM 32.0 °F 28.4 °F 87% 30.08 in 10.0 mi North - - N/A   Clear
9:15 AM 32.0 °F 28.4 °F 87% 30.08 in 10.0 mi North - - N/A   Clear
9:35 AM 33.8 °F 28.4 °F 81% 30.07 in 10.0 mi North - - N/A   Clear
9:55 AM 33.8 °F 28.4 °F 81% 30.07 in 10.0 mi North - - N/A   Clear
10:15 AM 35.6 °F 28.4 °F 75% 30.07 in 10.0 mi North - - N/A   Clear
10:35 AM 35.6 °F 24.8 °F 65% 30.06 in 10.0 mi North - - N/A   Clear
10:55 AM 37.4 °F 24.8 °F 60% 30.06 in 10.0 mi North - - N/A   Clear
11:15 AM 37.4 °F 24.8 °F 60% 30.06 in 10.0 mi North - - N/A   Clear
11:35 AM 37.4 °F 24.8 °F 60% 30.05 in 10.0 mi North - - N/A   Clear
11:55 AM 39.2 °F 24.8 °F 56% 30.05 in 10.0 mi North - - N/A   Clear
12:15 PM 39.2 °F 24.8 °F 56% 30.04 in 10.0 mi North - - N/A   Clear
12:35 PM 39.2 °F 23.0 °F 52% 30.03 in 10.0 mi North - - N/A   Clear
12:55 PM 41.0 °F 23.0 °F 49% 30.02 in 10.0 mi North - - N/A   Clear
1:15 PM 41.0 °F 21.2 °F 45% 30.01 in 10.0 mi North - - N/A   Clear
1:35 PM 41.0 °F 23.0 °F 49% 30.00 in 10.0 mi North - - N/A   Clear
1:55 PM 41.0 °F 23.0 °F 49% 29.99 in 10.0 mi North - - N/A   Clear
2:15 PM 42.8 °F 21.2 °F 42% 29.98 in 10.0 mi North - - N/A   Clear
2:35 PM 42.8 °F 21.2 °F 42% 29.98 in 10.0 mi North - - N/A   Clear
2:55 PM 42.8 °F 19.4 °F 39% 29.97 in 10.0 mi North - - N/A   Clear
3:15 PM 42.8 °F 23.0 °F 46% 29.97 in 10.0 mi North - - N/A   Clear
3:35 PM 42.8 °F 21.2 °F 42% 29.97 in 10.0 mi North - - N/A   Clear
3:55 PM 42.8 °F 23.0 °F 46% 29.97 in 10.0 mi North - - N/A   Clear
4:15 PM 42.8 °F 23.0 °F 46% 29.97 in 10.0 mi North - - N/A   Clear
4:35 PM 41.0 °F 21.2 °F 45% 29.97 in 10.0 mi North - - N/A   Clear
4:55 PM 39.2 °F 24.8 °F 56% 29.97 in 10.0 mi North - - N/A   Clear
5:15 PM 39.2 °F 23.0 °F 52% 29.97 in 10.0 mi North - - N/A   Clear
5:35 PM 37.4 °F 24.8 °F 60% 29.97 in 10.0 mi North - - N/A   Clear
5:55 PM 37.4 °F 24.8 °F 60% 29.97 in 10.0 mi North - - N/A   Clear
6:15 PM 35.6 °F 24.8 °F 65% 29.98 in 10.0 mi North - - N/A   Clear
6:35 PM 35.6 °F 24.8 °F 65% 29.98 in 10.0 mi North - - N/A   Clear
6:55 PM 35.6 °F 24.8 °F 65% 29.98 in 10.0 mi North - - N/A   Clear
7:15 PM 33.8 °F 24.8 °F 70% 29.99 in 10.0 mi North - - N/A   Clear
7:35 PM 33.8 °F 24.8 °F 70% 29.99 in 10.0 mi North - - N/A   Clear
7:55 PM 33.8 °F 24.8 °F 70% 29.98 in 10.0 mi North - - N/A   Clear
8:15 PM 32.0 °F 24.8 °F 75% 29.98 in 10.0 mi North - - N/A   Clear
8:35 PM 30.2 °F 23.0 °F 75% 29.98 in 10.0 mi North - - N/A   Clear
8:55 PM 30.2 °F 23.0 °F 75% 29.97 in 10.0 mi North - - N/A   Clear
9:15 PM 30.2 °F 21.2 °F 69% 29.97 in 10.0 mi North - - N/A   Clear
9:35 PM 30.2 °F 21.2 °F 69% 29.97 in 10.0 mi North - - N/A   Clear
9:55 PM 30.2 °F 21.2 °F 69% 29.97 in 10.0 mi North - - N/A   Clear
10:15 PM 30.2 °F 21.2 °F 69% 29.96 in 10.0 mi North - - N/A   Clear
10:35 PM 30.2 °F 21.2 °F 69% 29.95 in 10.0 mi North - - N/A   Clear
10:55 PM 30.2 °F 21.2 °F 69% 29.95 in 10.0 mi North - - N/A   Clear
11:15 PM 30.2 °F 21.2 °F 69% 29.94 in 10.0 mi North - - N/A   Clear
11:35 PM 30.2 °F 21.2 °F 69% 29.93 in 10.0 mi North - - N/A   Clear
11:55 PM 30.2 °F 21.2 °F 69% 29.92 in 10.0 mi North - - N/A   Clear